Location: Mount Cross
(36.6390°N, 79.4878°W)
Time: 01:09:38
(UTC+00:00)

SR - Pass Details

Date: 03 April 2023
Orbit: 580 x 867 km, 66.7° (Epoch: 08 June)

Event Time Altitude Azimuth Distance (km) Brightness Sun altitude
Rises 03:47:38 0° 165° (SSE) 3,037 - -42.8°
Reaches altitude 10° 03:50:52 10° 143° (SE) 2,066 - -43.1°
Maximum altitude 03:53:32 15° 108° (ESE) 1,697 - -43.4°
Drops below altitude 10° 03:56:08 10° 72° (ENE) 1,988 - -43.7°
Sets 03:59:09 0° 49° (NE) 2,857 - -44.0°
